GFSSW_500_temp_021.txt.gz
Temp
-3 -3 -3 -3 -3 -3 -3 -3 -3 -3 -2 -2 -2 -2 -3 -2 -3 -3 -4 -3 -5 -6 -6 -7 -7 -7 -7 -7 -6 -6 -6 -7 -7 -7 -6 -5 -5 -6 -6 -6 -6 -6 -7 -6 -6
-3 -3 -3 -3 -3 -3 -3 -3 -3 -3 -3 -3 -2 -2 -2 -2 -2 -3 -3 -4 -4 -5 -6 -6 -6 -7 -7 -7 -6 -7 -6 -7 -7 -6 -7 -5 -6 -6 -6 -5 -6 -6 -7 -7 -6
-3 -3 -3 -3 -3 -3 -3 -3 -3 -3 -3 -3 -2 -2 -2 -2 -2 -2 -3 -3 -4 -4 -5 -5 -6 -6 -6 -7 -6 -7 -6 -8 -7 -8 -7 -6 -6 -6 -6 -6 -6 -6 -7 -7 -6
-3 -3 -3 -3 -3 -3 -3 -3 -3 -3 -3 -3 -3 -2 -2 -2 -2 -2 -2 -3 -3 -4 -4 -5 -5 -6 -6 -6 -7 -7 -7 -7 -7 -7 -8 -7 -8 -6 -6 -7 -6 -7 -6 -7 -6
-3 -3 -3 -3 -3 -3 -3 -3 -3 -3 -3 -3 -3 -3 -2 -2 -2 -2 -2 -3 -3 -3 -4 -4 -5 -6 -7 -7 -9 -8 -8 -8 -8 -7 -8 -8 -8 -7 -6 -6 -6 -6 -7 -7 -7
-3 -3 -4 -4 -4 -4 -4 -3 -3 -3 -3 -3 -3 -3 -3 -3 -2 -3 -2 -2 -3 -3 -4 -4 -5 -6 -7 -7 -8 -8 -8 -8 -8 -8 -6 -9 -8 -6 -6 -6 -6 -6 -7 -7 -7
-4 -4 -4 -4 -4 -4 -4 -4 -4 -3 -3 -3 -3 -3 -3 -3 -3 -3 -2 -3 -3 -3 -3 -4 -5 -5 -6 -6 -8 -8 -7 -8 -6 -7 -6 -6 -7 -6 -6 -6 -6 -6 -6 -7 -7
-4 -4 -4 -4 -4 -4 -4 -4 -4 -4 -3 -3 -3 -3 -3 -3 -3 -3 -3 -2 -3 -3 -4 -4 -5 -4 -6 -7 -8 -7 -7 -7 -7 -7 -6 -6 -7 -6 -6 -6 -6 -6 -6 -6 -6
-4 -4 -4 -4 -4 -4 -4 -4 -4 -4 -4 -3 -3 -3 -3 -3 -3 -3 -3 -3 -3 -3 -4 -4 -4 -5 -5 -5 -8 -7 -7 -7 -7 -6 -6 -5 -5 -6 -6 -6 -6 -6 -6 -5 -6
-4 -3 -4 -4 -4 -4 -4 -4 -4 -4 -4 -3 -3 -3 -3 -3 -3 -3 -3 -3 -3 -3 -4 -4 -4 -5 -5 -5 -6 -7 -7 -6 -7 -6 -6 -6 -5 -6 -6 -6 -5 -5 -5 -6 -6
-3 -3 -3 -3 -3 -4 -4 -4 -4 -4 -4 -4 -3 -3 -3 -3 -3 -3 -4 -3 -4 -4 -4 -4 -4 -3 -4 -5 -6 -7 -6 -6 -6 -7 -6 -8 -8 -7 -6 -6 -5 -5 -5 -5 -5
-3 -4 -3 -3 -3 -3 -4 -4 -4 -4 -4 -4 -3 -3 -3 -3 -3 -3 -3 -3 -3 -4 -4 -4 -3 -4 -5 -6 -6 -7 -7 -6 -6 -7 -7 -7 -7 -8 -7 -6 -6 -5 -5 -5 -5
-3 -3 -4 -3 -3 -4 -3 -4 -4 -4 -3 -4 -3 -3 -3 -3 -4 -3 -3 -4 -3 -4 -4 -4 -4 -4 -5 -6 -6 -8 -7 -6 -6 -7 -7 -7 -6 -7 -8 -7 -6 -5 -5 -5 -5
-4 -3 -4 -3 -3 -4 -4 -4 -4 -4 -3 -3 -4 -3 -3 -3 -3 -3 -3 -4 -3 -4 -4 -4 -5 -4 -5 -6 -6 -8 -8 -7 -6 -7 -6 -7 -6 -7 -7 -7 -6 -6 -5 -5 -5
-4 -4 -4 -4 -4 -3 -4 -4 -4 -4 -4 -3 -2 -3 -3 -4 -3 -4 -3 -3 -4 -4 -4 -4 -4 -4 -4 -4 -6 -6 -8 -7 -7 -6 -6 -7 -7 -6 -6 -7 -7 -6 -6 -5 -5
-5 -4 -4 -4 -5 -4 -4 -4 -5 -4 -3 -4 -3 -4 -4 -4 -4 -3 -4 -4 -4 -4 -4 -4 -5 -5 -4 -5 -5 -6 -8 -7 -7 -6 -7 -6 -6 -6 -6 -6 -7 -7 -7 -6 -6
-4 -4 -4 -5 -5 -5 -4 -4 -4 -4 -4 -4 -4 -4 -5 -4 -4 -4 -4 -4 -4 -4 -4 -4 -4 -4 -5 -5 -6 -6 -8 -7 -7 -6 -6 -6 -6 -6 -6 -6 -6 -7 -7 -7 -7
-5 -5 -6 -5 -6 -6 -5 -5 -4 -3 -4 -5 -5 -5 -5 -6 -4 -4 -5 -4 -4 -4 -5 -5 -4 -4 -5 -4 -5 -6 -6 -7 -7 -6 -6 -6 -5 -5 -5 -6 -6 -6 -7 -7 -7
-5 -6 -6 -6 -7 -7 -6 -5 -4 -4 -6 -5 -6 -6 -5 -6 -7 -5 -5 -5 -5 -5 -5 -6 -5 -6 -5 -5 -6 -7 -7 -7 -7 -6 -6 -5 -6 -6 -6 -6 -7 -7 -7 -7 -7
-6 -6 -7 -7 -7 -8 -7 -5 -5 -6 -6 -7 -7 -8 -7 -7 -7 -7 -6 -5 -5 -5 -6 -6 -9 -7 -7 -7 -6 -7 -7 -8 -7 -6 -6 -5 -5 -6 -6 -6 -7 -7 -7 -7 -7
-5 -6 -6 -8 -8 -8 -7 -6 -7 -8 -8 -7 -7 -8 -8 -8 -10 -7 -7 -8 -7 -6 -6 -6 -7 -9 -9 -5 -4 -6 -6 -8 -7 -7 -6 -6 -5 -6 -7 -7 -7 -7 -7 -7 -7
-8 -8 -8 -10 -11 -10 -9 -9 -9 -8 -9 -8 -9 -9 -9 -10 -11 -11 -9 -10 -10 -9 -7 -6 -7 -9 -9 -9 -9 -8 -8 -8 -8 -8 -7 -6 -5 -6 -6 -7 -7 -7 -7 -7 -7
-12 -12 -14 -12 -12 -12 -12 -11 -10 -10 -9 -10 -9 -9 -10 -10 -11 -10 -11 -11 -11 -10 -8 -9 -7 -10 -10 -9 -9 -6 -6 -8 -8 -8 -8 -7 -6 -7 -7 -7 -7 -8 -7 -7 -8
-16 -16 -17 -16 -16 -15 -15 -13 -12 -12 -12 -10 -10 -11 -11 -11 -11 -10 -10 -12 -12 -10 -10 -9 -10 -7 -9 -8 -9 -10 -10 -9 -8 -8 -7 -7 -7 -7 -7 -7 -8 -7 -7 -8 -8
-20 -20 -20 -19 -21 -20 -19 -18 -17 -14 -12 -13 -13 -13 -12 -12 -12 -11 -10 -13 -13 -13 -10 -9 -9 -10 -8 -10 -10 -9 -10 -10 -9 -9 -8 -7 -8 -7 -7 -7 -8 -8 -8 -7 -7
-23 -23 -23 -22 -22 -22 -21 -21 -19 -18 -17 -15 -15 -17 -15 -16 -15 -13 -13 -13 -13 -14 -11 -10 -10 -10 -10 -10 -10 -10 -9 -10 -10 -10 -9 -9 -8 -8 -8 -8 -8 -8 -8 -8 -8
-23 -23 -23 -23 -24 -24 -22 -22 -22 -21 -18 -18 -17 -17 -17 -18 -17 -16 -16 -15 -13 -13 -13 -10 -11 -10 -9 -11 -11 -10 -10 -10 -9 -10 -10 -10 -8 -9 -9 -8 -8 -8 -8 -7 -6

GFSSW_500_temp_024.txt.gz
Temp
-3 -3 -3 -3 -3 -2 -2 -3 -3 -3 -3 -3 -2 -3 -2 -2 -3 -3 -4 -3 -4 -5 -6 -6 -6 -6 -6 -6 -6 -5 -5 -6 -7 -7 -5 -5 -5 -5 -4 -5 -6 -5 -6 -6 -6
-3 -3 -3 -3 -3 -3 -3 -2 -2 -3 -2 -3 -2 -2 -3 -2 -2 -2 -2 -3 -4 -4 -5 -6 -6 -6 -6 -6 -7 -6 -5 -6 -6 -7 -7 -6 -6 -5 -5 -5 -5 -5 -6 -6 -6
-3 -3 -3 -3 -3 -3 -3 -3 -3 -3 -2 -2 -2 -2 -2 -2 -2 -2 -3 -3 -3 -4 -4 -5 -5 -6 -6 -6 -7 -7 -6 -6 -6 -6 -7 -6 -6 -5 -5 -5 -6 -5 -5 -6 -6
-3 -3 -3 -3 -3 -3 -3 -3 -3 -3 -3 -3 -2 -2 -2 -2 -1 -2 -2 -3 -3 -4 -4 -4 -5 -5 -5 -6 -7 -7 -6 -6 -6 -7 -7 -7 -6 -6 -6 -7 -5 -5 -6 -6 -6
-3 -3 -3 -3 -3 -4 -4 -3 -3 -3 -3 -3 -3 -2 -2 -3 -2 -2 -2 -3 -3 -3 -4 -4 -4 -5 -5 -6 -7 -8 -6 -6 -7 -7 -7 -7 -7 -6 -7 -5 -5 -5 -6 -6 -6
-3 -3 -4 -4 -4 -4 -4 -3 -3 -3 -3 -3 -3 -3 -3 -3 -2 -2 -2 -3 -3 -3 -4 -4 -4 -5 -5 -5 -8 -8 -7 -7 -7 -8 -7 -7 -7 -7 -6 -6 -6 -5 -5 -6 -6
-4 -3 -4 -4 -4 -4 -4 -4 -3 -3 -3 -3 -3 -3 -3 -3 -3 -2 -2 -2 -3 -3 -4 -4 -5 -5 -4 -5 -6 -8 -8 -8 -7 -6 -8 -7 -7 -7 -5 -6 -5 -6 -5 -6 -6
-3 -3 -3 -3 -3 -3 -4 -4 -4 -3 -3 -3 -3 -2 -3 -3 -3 -3 -3 -2 -3 -3 -3 -4 -5 -5 -4 -5 -5 -8 -8 -7 -7 -8 -7 -6 -6 -7 -5 -6 -5 -5 -5 -5 -5
-3 -3 -3 -3 -3 -3 -3 -3 -3 -3 -3 -3 -3 -2 -3 -3 -3 -3 -3 -3 -3 -3 -3 -3 -4 -4 -5 -4 -5 -7 -7 -7 -7 -7 -8 -6 -6 -7 -7 -6 -6 -5 -5 -5 -5
-3 -3 -3 -3 -3 -3 -3 -3 -3 -3 -3 -3 -3 -3 -2 -3 -3 -3 -3 -3 -3 -3 -3 -3 -3 -4 -4 -5 -4 -6 -7 -7 -6 -6 -6 -7 -6 -5 -7 -7 -6 -5 -4 -4 -4
-3 -3 -3 -3 -3 -3 -3 -3 -3 -3 -3 -3 -3 -3 -2 -3 -3 -3 -3 -3 -3 -3 -3 -4 -3 -2 -4 -4 -5 -6 -7 -6 -7 -7 -7 -7 -7 -6 -6 -7 -6 -5 -4 -4 -4
-3 -4 -3 -3 -3 -3 -3 -3 -3 -2 -2 -3 -3 -3 -3 -3 -3 -3 -3 -3 -3 -3 -4 -3 -3 -3 -4 -5 -5 -5 -7 -6 -6 -6 -6 -7 -6 -5 -6 -6 -6 -5 -5 -4 -4
-3 -3 -3 -3 -3 -3 -3 -3 -3 -2 -1 -3 -3 -3 -3 -3 -3 -3 -3 -3 -3 -3 -3 -3 -3 -4 -4 -5 -5 -5 -6 -7 -6 -7 -6 -7 -7 -7 -7 -6 -6 -5 -4 -4 -4
-4 -3 -3 -3 -3 -3 -3 -3 -3 -3 -2 -2 -2 -2 -2 -3 -3 -3 -3 -3 -3 -3 -3 -3 -4 -4 -4 -4 -5 -5 -5 -7 -7 -7 -6 -6 -6 -6 -6 -5 -5 -5 -4 -4 -4
-4 -4 -4 -4 -4 -3 -3 -3 -3 -3 -3 -2 -1 -2 -3 -3 -3 -3 -3 -3 -3 -4 -3 -3 -3 -3 -3 -4 -5 -4 -5 -6 -7 -7 -7 -6 -7 -6 -6 -6 -5 -4 -5 -5 -4
-4 -4 -4 -4 -4 -4 -4 -4 -3 -3 -2 -3 -2 -2 -3 -3 -3 -3 -3 -3 -4 -3 -3 -3 -3 -4 -4 -4 -5 -5 -7 -6 -7 -7 -7 -6 -6 -6 -6 -6 -6 -6 -6 -5 -5
-4 -4 -4 -4 -4 -4 -4 -4 -4 -3 -3 -3 -3 -2 -3 -3 -4 -3 -3 -4 -3 -3 -3 -3 -3 -3 -4 -5 -5 -6 -8 -7 -7 -6 -6 -6 -6 -5 -6 -6 -6 -6 -6 -6 -5
-4 -4 -4 -4 -5 -4 -5 -4 -3 -2 -3 -5 -5 -3 -2 -4 -4 -4 -3 -4 -4 -4 -4 -4 -3 -4 -4 -4 -5 -5 -7 -7 -7 -6 -6 -5 -6 -5 -5 -5 -6 -5 -5 -6 -7
-4 -4 -5 -5 -6 -6 -6 -4 -3 -4 -5 -5 -6 -6 -5 -3 -5 -5 -5 -4 -4 -4 -4 -4 -4 -5 -4 -5 -5 -4 -7 -5 -7 -6 -6 -5 -5 -5 -6 -6 -6 -5 -6 -6 -7
-3 -3 -4 -4 -5 -7 -6 -4 -4 -5 -5 -7 -7 -8 -7 -8 -7 -8 -5 -4 -4 -4 -5 -5 -6 -6 -6 -7 -4 -4 -5 -6 -7 -7 -6 -5 -5 -6 -5 -5 -6 -6 -6 -7 -7
-4 -4 -8 -6 -6 -7 -6 -5 -6 -6 -6 -7 -7 -6 -5 -10 -10 -9 -9 -7 -5 -5 -5 -6 -6 -7 -8 -5 -5 -5 -5 -6 -7 -7 -6 -6 -5 -5 -5 -6 -6 -6 -6 -6 -7
-7 -7 -10 -8 -9 -10 -8 -8 -9 -8 -8 -7 -8 -9 -7 -8 -10 -10 -9 -9 -9 -9 -7 -6 -6 -7 -8 -8 -7 -6 -4 -5 -7 -7 -7 -6 -5 -5 -5 -6 -6 -6 -6 -6 -5
-11 -11 -16 -16 -10 -13 -13 -12 -11 -10 -8 -10 -11 -10 -10 -10 -10 -10 -10 -9 -10 -9 -10 -9 -7 -8 -8 -8 -8 -8 -6 -6 -6 -7 -7 -7 -6 -5 -6 -6 -7 -7 -7 -6 -5
-18 -18 -19 -20 -19 -17 -17 -15 -13 -12 -10 -13 -13 -12 -11 -11 -11 -9 -10 -10 -10 -10 -10 -10 -9 -7 -6 -6 -8 -8 -8 -6 -8 -8 -7 -7 -7 -5 -6 -7 -6 -8 -7 -7 -7
-22 -22 -22 -21 -21 -22 -22 -20 -16 -14 -15 -15 -13 -13 -13 -11 -11 -11 -11 -11 -10 -10 -10 -10 -10 -9 -7 -9 -9 -8 -8 -9 -8 -6 -8 -6 -7 -7 -5 -7 -6 -8 -8 -7 -7
-24 -23 -23 -23 -23 -23 -22 -22 -21 -18 -20 -18 -17 -16 -14 -12 -15 -12 -11 -11 -11 -11 -12 -11 -10 -10 -10 -9 -9 -9 -8 -8 -9 -6 -7 -8 -7 -7 -7 -6 -8 -8 -7 -7 -7
-25 -24 -24 -23 -23 -23 -23 -23 -22 -21 -20 -21 -19 -17 -16 -15 -13 -12 -12 -12 -11 -12 -12 -12 -11 -11 -9 -9 -10 -9 -9 -9 -8 -9 -9 -9 -7 -8 -7 -7 -7 -8 -8 -8 -8

GFSSW_500_temp_027.txt.gz
Temp
-3 -3 -3 -3 -3 -3 -3 -2 -2 -2 -2 -2 -2 -2 -2 -2 -2 -3 -3 -2 -4 -4 -5 -6 -6 -6 -7 -7 -5 -5 -6 -6 -7 -8 -8 -7 -7 -6 -5 -4 -4 -5 -6 -6 -6
-3 -3 -3 -3 -3 -3 -3 -3 -3 -2 -2 -2 -2 -2 -2 -2 -2 -3 -2 -3 -4 -4 -4 -5 -6 -7 -7 -5 -5 -5 -6 -6 -6 -6 -7 -7 -6 -5 -5 -4 -5 -4 -5 -5 -6
-3 -3 -3 -3 -3 -3 -3 -3 -3 -3 -2 -2 -2 -2 -2 -2 -2 -2 -2 -3 -3 -4 -4 -5 -5 -6 -7 -5 -6 -6 -5 -7 -7 -7 -7 -7 -6 -6 -7 -5 -5 -6 -5 -5 -4
-3 -3 -3 -3 -3 -3 -3 -3 -3 -3 -3 -2 -2 -2 -2 -2 -2 -2 -2 -2 -3 -3 -3 -4 -5 -5 -6 -6 -5 -6 -7 -6 -6 -6 -7 -8 -7 -6 -6 -5 -5 -5 -5 -5 -5
-3 -3 -3 -3 -3 -3 -3 -3 -3 -3 -3 -3 -3 -2 -2 -2 -1 -2 -2 -3 -3 -3 -4 -4 -5 -5 -6 -6 -6 -6 -8 -7 -8 -8 -8 -8 -7 -7 -6 -6 -6 -6 -5 -5 -5
-3 -3 -3 -3 -3 -3 -3 -3 -3 -3 -3 -3 -3 -3 -2 -2 -2 -2 -2 -2 -3 -3 -3 -4 -4 -5 -6 -7 -5 -7 -8 -8 -8 -8 -8 -8 -8 -6 -6 -6 -6 -5 -6 -6 -5
-4 -3 -3 -3 -3 -3 -3 -3 -3 -3 -3 -3 -2 -3 -3 -3 -2 -2 -2 -2 -3 -2 -3 -3 -5 -5 -5 -6 -6 -7 -9 -8 -8 -8 -8 -8 -6 -6 -6 -6 -6 -6 -6 -6 -6
-4 -4 -3 -3 -3 -3 -3 -3 -3 -2 -3 -3 -3 -3 -3 -3 -3 -3 -2 -2 -3 -3 -3 -3 -4 -5 -5 -5 -5 -5 -7 -8 -8 -7 -8 -8 -7 -7 -7 -6 -5 -6 -6 -6 -6
-3 -3 -3 -3 -3 -3 -3 -3 -2 -2 -2 -2 -2 -3 -3 -3 -3 -3 -2 -2 -2 -3 -3 -3 -3 -4 -5 -5 -5 -4 -5 -6 -8 -8 -7 -8 -6 -5 -6 -5 -5 -5 -5 -5 -5
-3 -3 -2 -2 -3 -3 -2 -2 -2 -2 -2 -2 -2 -2 -3 -3 -3 -3 -3 -2 -3 -3 -3 -3 -3 -3 -3 -4 -4 -4 -4 -5 -7 -7 -7 -7 -7 -6 -6 -5 -5 -5 -5 -5 -5
-4 -4 -3 -3 -3 -3 -2 -2 -2 -1 -2 -1 -1 -2 -2 -3 -3 -3 -3 -3 -3 -3 -3 -3 -3 -2 -3 -3 -4 -5 -5 -6 -7 -8 -7 -7 -6 -6 -6 -5 -5 -5 -5 -5 -4
-3 -3 -3 -3 -3 -3 -3 -2 -2 -2 -1 -2 -2 -2 -1 -2 -2 -3 -3 -3 -3 -3 -3 -2 -2 -3 -4 -4 -5 -5 -5 -5 -8 -7 -7 -6 -7 -6 -5 -5 -5 -4 -5 -5 -4
-3 -3 -3 -4 -3 -3 -3 -3 -3 -2 -1 -2 -3 -2 -3 -1 -2 -2 -2 -3 -3 -3 -3 -3 -3 -4 -4 -4 -4 -5 -5 -5 -8 -7 -7 -7 -7 -6 -6 -6 -5 -4 -5 -5 -5
-4 -4 -4 -4 -4 -3 -2 -3 -3 -2 -2 -1 -2 -2 -2 -2 -1 -3 -3 -3 -3 -3 -3 -3 -3 -3 -4 -4 -4 -4 -5 -5 -7 -7 -7 -7 -6 -7 -7 -5 -5 -5 -5 -5 -5
-4 -4 -4 -4 -4 -4 -3 -4 -3 -3 -2 -2 -2 -2 -3 -2 -3 -3 -3 -2 -3 -3 -3 -3 -3 -3 -2 -3 -4 -3 -6 -6 -6 -7 -8 -7 -6 -6 -6 -6 -5 -6 -6 -5 -5
-4 -4 -4 -4 -5 -4 -4 -4 -4 -3 -2 -3 -2 -2 -2 -3 -3 -3 -3 -3 -3 -3 -3 -3 -3 -3 -3 -3 -4 -4 -5 -6 -6 -7 -8 -7 -7 -6 -7 -5 -6 -6 -5 -5 -5
-4 -4 -4 -5 -4 -4 -4 -4 -4 -3 -3 -3 -4 -3 -2 -2 -3 -3 -3 -3 -3 -3 -2 -3 -3 -3 -3 -3 -4 -5 -5 -6 -6 -6 -5 -7 -7 -4 -6 -7 -6 -5 -6 -5 -5
-4 -5 -5 -5 -5 -4 -4 -4 -4 -3 -3 -6 -6 -4 -3 -3 -3 -4 -4 -2 -3 -3 -3 -3 -3 -3 -3 -3 -3 -4 -5 -4 -5 -5 -5 -6 -7 -3 -5 -6 -6 -6 -5 -4 -6
-4 -4 -4 -4 -5 -5 -5 -4 -3 -4 -5 -4 -5 -4 -4 -4 -4 -4 -4 -3 -4 -4 -4 -4 -3 -4 -3 -4 -4 -4 -4 -5 -6 -6 -6 -5 -5 -5 -5 -6 -6 -6 -6 -6 -7
-3 -3 -5 -4 -4 -4 -4 -3 -4 -5 -4 -5 -5 -6 -5 -5 -6 -6 -5 -4 -3 -4 -5 -4 -4 -5 -4 -4 -4 -5 -5 -6 -6 -5 -5 -5 -5 -5 -5 -5 -5 -6 -5 -6 -6
-4 -3 -8 -7 -6 -5 -4 -4 -4 -5 -6 -6 -7 -6 -6 -6 -6 -5 -3 -5 -6 -5 -6 -6 -5 -5 -5 -5 -5 -4 -4 -6 -7 -7 -6 -5 -4 -5 -6 -6 -5 -5 -5 -6 -5
-4 -4 -9 -10 -9 -7 -6 -8 -8 -7 -8 -8 -7 -7 -7 -8 -7 -6 -4 -4 -9 -8 -7 -6 -7 -6 -4 -5 -6 -5 -4 -6 -5 -6 -7 -7 -4 -5 -6 -6 -5 -6 -6 -6 -5
-7 -7 -13 -14 -10 -12 -12 -12 -11 -11 -10 -9 -9 -10 -10 -9 -9 -8 -6 -6 -9 -9 -9 -9 -7 -7 -6 -6 -5 -5 -6 -5 -6 -6 -5 -7 -3 -5 -5 -6 -5 -7 -7 -6 -7
-13 -13 -18 -19 -18 -19 -19 -15 -15 -14 -12 -12 -9 -10 -10 -11 -10 -9 -8 -8 -10 -9 -9 -10 -9 -7 -5 -5 -6 -6 -7 -7 -6 -6 -4 -4 -5 -5 -5 -6 -7 -7 -7 -7 -7
-23 -21 -23 -23 -23 -22 -22 -22 -20 -17 -16 -16 -12 -12 -13 -11 -11 -10 -10 -8 -8 -9 -9 -9 -10 -8 -6 -7 -7 -6 -8 -8 -6 -4 -5 -5 -6 -5 -5 -6 -6 -7 -7 -7 -8
-26 -25 -25 -24 -24 -24 -23 -23 -22 -21 -19 -19 -18 -18 -16 -14 -13 -12 -10 -9 -9 -9 -9 -9 -10 -10 -10 -8 -8 -8 -8 -8 -8 -7 -6 -6 -5 -7 -6 -6 -7 -7 -6 -8 -8
-26 -26 -25 -25 -24 -24 -23 -23 -23 -23 -22 -21 -21 -20 -19 -17 -15 -12 -12 -10 -9 -9 -10 -10 -10 -10 -10 -10 -10 -9 -7 -8 -8 -8 -8 -6 -5 -7 -7 -7 -8 -8 -8 -8 -8

GFSSW_500_temp_030.txt.gz
Temp
-3 -3 -3 -3 -3 -3 -3 -3 -2 -2 -2 -2 -2 -2 -2 -2 -2 -3 -4 -3 -3 -4 -5 -5 -6 -6 -7 -6 -7 -7 -6 -6 -5 -5 -6 -5 -5 -6 -5 -6 -6 -6 -6 -6 -6
-3 -3 -3 -3 -3 -3 -3 -3 -3 -3 -3 -2 -2 -2 -2 -2 -2 -3 -3 -4 -4 -4 -5 -6 -6 -6 -6 -5 -7 -8 -6 -7 -7 -7 -6 -5 -5 -6 -5 -6 -6 -6 -6 -6 -6
-3 -3 -3 -3 -3 -3 -3 -3 -3 -3 -3 -3 -2 -2 -2 -2 -2 -2 -3 -3 -4 -4 -5 -5 -5 -5 -5 -5 -6 -7 -7 -7 -7 -8 -6 -5 -5 -6 -6 -6 -7 -6 -6 -6 -6
-4 -3 -3 -3 -3 -3 -3 -3 -3 -3 -3 -3 -2 -2 -2 -2 -2 -2 -2 -2 -3 -3 -3 -4 -5 -5 -5 -6 -7 -7 -6 -7 -7 -7 -7 -7 -7 -6 -6 -6 -6 -6 -6 -6 -6
-4 -4 -3 -3 -3 -3 -3 -3 -3 -3 -3 -3 -3 -3 -2 -2 -3 -2 -2 -3 -2 -3 -4 -4 -5 -5 -4 -6 -7 -6 -6 -7 -7 -8 -8 -7 -7 -6 -6 -7 -6 -6 -6 -6 -6
-4 -3 -3 -3 -3 -3 -3 -3 -3 -3 -3 -3 -3 -3 -3 -2 -3 -2 -2 -2 -2 -2 -3 -3 -5 -6 -5 -4 -6 -5 -4 -6 -8 -7 -7 -8 -7 -7 -6 -6 -6 -5 -5 -5 -6
-4 -3 -4 -4 -3 -3 -3 -3 -3 -3 -2 -3 -3 -3 -3 -3 -3 -3 -2 -3 -3 -3 -3 -4 -5 -6 -5 -5 -6 -5 -4 -4 -6 -7 -7 -8 -7 -6 -6 -6 -6 -6 -5 -5 -6
-4 -3 -3 -3 -3 -3 -2 -2 -2 -2 -2 -2 -3 -3 -3 -3 -3 -3 -3 -3 -3 -3 -3 -3 -4 -5 -5 -6 -6 -5 -5 -4 -5 -7 -7 -7 -7 -6 -7 -6 -7 -6 -5 -5 -5
-4 -4 -4 -3 -3 -3 -2 -2 -2 -2 -2 -2 -2 -3 -3 -3 -3 -3 -3 -3 -3 -3 -3 -3 -3 -4 -5 -5 -6 -5 -5 -5 -6 -8 -8 -8 -7 -7 -6 -6 -6 -7 -6 -5 -5
-4 -4 -3 -3 -3 -3 -2 -2 -2 -1 -1 -1 -2 -2 -3 -2 -3 -3 -3 -3 -3 -3 -3 -3 -3 -3 -3 -4 -4 -5 -6 -6 -6 -8 -7 -7 -7 -7 -6 -6 -6 -6 -6 -5 -5
-4 -4 -4 -3 -3 -3 -2 -2 -2 -2 -2 -1 -2 -2 -2 -2 -2 -3 -3 -2 -3 -3 -3 -3 -3 -2 -3 -3 -5 -6 -7 -6 -7 -7 -8 -8 -7 -7 -7 -7 -6 -6 -6 -5 -5
-4 -3 -4 -3 -3 -3 -3 -3 -2 -1 -2 -2 -2 -2 -2 -1 -2 -2 -2 -2 -2 -3 -3 -2 -2 -3 -3 -4 -5 -6 -6 -6 -6 -7 -7 -8 -7 -7 -6 -7 -6 -6 -6 -5 -5
-3 -3 -4 -4 -4 -3 -3 -3 -2 -2 -1 -3 -3 -2 -3 -1 -2 -3 -2 -3 -3 -2 -3 -3 -3 -4 -4 -3 -4 -5 -6 -7 -6 -6 -7 -8 -8 -7 -6 -7 -6 -6 -6 -5 -4
-4 -4 -4 -5 -4 -4 -3 -3 -3 -2 -2 -1 -2 -3 -2 -2 -1 -3 -3 -3 -3 -3 -3 -2 -3 -3 -3 -4 -4 -4 -5 -7 -7 -6 -6 -8 -7 -6 -7 -7 -6 -6 -6 -5 -4
-4 -4 -4 -4 -5 -4 -4 -4 -4 -3 -2 -3 -2 -2 -3 -2 -3 -3 -3 -2 -2 -3 -3 -3 -3 -3 -3 -3 -4 -3 -6 -7 -7 -7 -5 -7 -7 -5 -7 -5 -5 -5 -6 -5 -4
-4 -4 -4 -4 -5 -5 -4 -5 -4 -4 -2 -3 -3 -3 -3 -3 -3 -3 -3 -3 -3 -3 -2 -3 -3 -2 -3 -3 -4 -4 -6 -7 -7 -8 -7 -6 -5 -4 -6 -5 -4 -5 -5 -5 -5
-5 -5 -5 -5 -5 -4 -4 -4 -5 -4 -3 -4 -4 -3 -3 -3 -4 -3 -3 -3 -3 -3 -2 -3 -3 -3 -3 -3 -3 -4 -5 -6 -6 -7 -5 -6 -6 -3 -5 -5 -5 -4 -5 -5 -6
-5 -5 -5 -5 -5 -5 -5 -5 -4 -3 -4 -4 -4 -4 -3 -4 -3 -3 -3 -3 -2 -2 -3 -3 -3 -3 -3 -3 -3 -3 -4 -4 -6 -6 -6 -7 -6 -3 -5 -6 -6 -6 -5 -5 -5
-5 -5 -5 -5 -5 -5 -5 -5 -4 -4 -4 -4 -4 -5 -4 -4 -4 -4 -3 -3 -3 -3 -3 -4 -3 -4 -3 -4 -4 -3 -3 -5 -5 -5 -5 -5 -7 -4 -5 -6 -6 -6 -6 -5 -5
-5 -5 -6 -5 -5 -5 -4 -4 -4 -5 -5 -5 -5 -5 -5 -4 -4 -3 -3 -3 -4 -4 -4 -4 -4 -4 -4 -4 -4 -4 -5 -5 -4 -4 -5 -4 -5 -4 -4 -5 -6 -6 -6 -6 -6
-5 -4 -6 -6 -5 -4 -4 -5 -5 -6 -6 -6 -5 -5 -6 -6 -4 -4 -3 -3 -4 -4 -7 -6 -5 -4 -5 -4 -4 -4 -4 -4 -5 -5 -4 -4 -3 -4 -4 -5 -6 -6 -6 -6 -6
-5 -5 -8 -6 -8 -6 -5 -6 -6 -6 -9 -7 -6 -6 -7 -7 -5 -4 -3 -4 -5 -4 -4 -4 -6 -4 -4 -4 -4 -5 -4 -5 -4 -4 -4 -3 -1 -4 -5 -6 -6 -6 -6 -6 -6
-8 -9 -8 -9 -9 -9 -8 -8 -8 -8 -8 -11 -8 -7 -6 -7 -8 -7 -4 -5 -6 -5 -4 -4 -2 -2 -4 -5 -6 -5 -4 -4 -5 -5 -3 -3 -2 -4 -5 -6 -6 -6 -6 -6 -7
-15 -16 -16 -17 -14 -14 -14 -13 -12 -12 -12 -11 -11 -9 -7 -8 -10 -9 -7 -6 -7 -8 -6 -5 -4 -2 -1 -4 -5 -4 -4 -4 -4 -4 -3 -2 -3 -3 -5 -6 -6 -6 -7 -7 -7
-24 -24 -25 -24 -24 -23 -22 -20 -19 -18 -16 -15 -14 -13 -10 -10 -10 -10 -9 -8 -9 -9 -8 -7 -5 -4 -2 -2 -6 -6 -5 -5 -4 -3 -3 -2 -4 -4 -5 -6 -6 -6 -6 -7 -7
-26 -26 -26 -26 -26 -25 -25 -24 -24 -23 -22 -21 -18 -17 -15 -13 -13 -13 -11 -10 -10 -10 -10 -9 -7 -6 -4 -3 -4 -7 -7 -5 -4 -5 -4 -4 -4 -5 -5 -5 -6 -6 -7 -7 -7
-26 -26 -26 -26 -26 -26 -25 -25 -23 -23 -23 -22 -22 -21 -19 -17 -16 -14 -13 -10 -10 -11 -11 -10 -9 -9 -6 -6 -6 -9 -3 -6 -5 -6 -4 -4 -5 -5 -5 -5 -6 -6 -7 -8 -8

GFSSW_500_temp_033.txt.gz
Temp
-3 -3 -3 -3 -3 -3 -3 -3 -3 -3 -3 -3 -3 -2 -3 -3 -3 -4 -4 -3 -3 -4 -5 -5 -5 -5 -5 -6 -6 -6 -5 -5 -5 -6 -6 -6 -7 -8 -7 -6 -7 -7 -6 -6 -6
-3 -3 -3 -3 -3 -3 -3 -3 -3 -3 -3 -3 -3 -3 -3 -3 -3 -3 -3 -4 -4 -5 -5 -6 -5 -5 -5 -6 -6 -6 -6 -6 -7 -6 -6 -6 -7 -8 -7 -6 -6 -6 -7 -7 -7
-4 -4 -4 -3 -3 -3 -3 -3 -3 -3 -3 -3 -3 -3 -3 -3 -3 -3 -3 -4 -4 -5 -5 -6 -5 -5 -4 -6 -6 -6 -6 -6 -7 -6 -6 -6 -7 -8 -8 -7 -6 -6 -6 -7 -7
-4 -4 -4 -4 -4 -4 -4 -3 -3 -3 -3 -3 -3 -3 -3 -3 -3 -3 -3 -3 -3 -4 -4 -3 -4 -5 -5 -6 -6 -6 -7 -7 -6 -7 -6 -6 -6 -7 -8 -7 -7 -6 -6 -6 -6
-4 -4 -4 -4 -4 -4 -4 -3 -3 -3 -3 -3 -3 -3 -3 -3 -3 -3 -3 -3 -3 -3 -4 -4 -4 -6 -5 -7 -7 -6 -7 -6 -5 -5 -6 -6 -6 -6 -7 -8 -7 -6 -6 -6 -7
-4 -4 -4 -4 -3 -3 -3 -3 -3 -3 -3 -3 -3 -3 -3 -3 -3 -3 -3 -3 -3 -3 -3 -4 -4 -6 -6 -7 -7 -7 -7 -6 -6 -7 -5 -5 -6 -6 -7 -8 -8 -7 -6 -6 -7
-4 -4 -4 -4 -3 -3 -3 -3 -3 -3 -3 -3 -3 -3 -3 -3 -3 -3 -3 -3 -3 -3 -4 -4 -4 -5 -6 -6 -7 -6 -7 -5 -5 -6 -6 -6 -6 -7 -7 -7 -8 -7 -7 -7 -6
-4 -4 -3 -3 -3 -3 -2 -2 -2 -3 -3 -3 -3 -3 -3 -3 -3 -3 -3 -3 -4 -4 -4 -4 -4 -5 -6 -6 -6 -6 -6 -6 -6 -5 -6 -5 -6 -6 -7 -8 -8 -8 -7 -7 -6
-4 -4 -3 -3 -3 -3 -2 -2 -2 -2 -2 -3 -3 -3 -3 -3 -3 -3 -4 -3 -3 -4 -4 -4 -4 -4 -5 -5 -5 -5 -5 -7 -7 -6 -6 -6 -7 -7 -7 -8 -8 -7 -6 -7 -7
-4 -4 -4 -3 -3 -3 -2 -2 -2 -2 -2 -2 -3 -3 -3 -3 -3 -3 -3 -3 -3 -3 -3 -3 -3 -3 -4 -3 -3 -5 -5 -6 -7 -7 -6 -6 -6 -7 -7 -8 -8 -7 -6 -6 -6
-5 -5 -4 -4 -4 -3 -3 -2 -2 -2 -2 -2 -2 -3 -3 -2 -3 -3 -3 -2 -3 -3 -3 -3 -3 -3 -3 -4 -5 -5 -6 -6 -7 -7 -6 -6 -5 -7 -8 -7 -8 -8 -6 -5 -6
-4 -5 -4 -4 -4 -3 -3 -3 -2 -2 -2 -2 -2 -2 -3 -2 -2 -3 -3 -3 -2 -3 -3 -2 -2 -4 -5 -5 -5 -5 -5 -6 -7 -7 -6 -6 -5 -7 -7 -8 -8 -8 -7 -6 -5
-4 -4 -4 -4 -4 -4 -3 -3 -3 -2 -2 -3 -2 -2 -3 -1 -3 -3 -3 -3 -3 -3 -3 -3 -3 -4 -5 -4 -5 -5 -5 -7 -8 -8 -8 -6 -5 -4 -7 -7 -7 -7 -7 -6 -5
-4 -4 -4 -4 -4 -4 -4 -3 -3 -2 -2 -2 -3 -2 -2 -2 -2 -4 -3 -3 -3 -3 -3 -3 -3 -3 -3 -3 -5 -5 -5 -7 -8 -8 -8 -7 -6 -5 -6 -7 -7 -7 -6 -6 -6
-4 -4 -4 -4 -4 -4 -4 -4 -3 -3 -3 -3 -2 -3 -3 -3 -3 -3 -3 -3 -3 -4 -3 -3 -4 -3 -3 -4 -4 -4 -6 -7 -7 -8 -8 -7 -6 -5 -6 -6 -6 -7 -6 -6 -6
-5 -5 -4 -4 -5 -4 -4 -4 -4 -4 -2 -3 -2 -2 -3 -3 -3 -3 -3 -3 -3 -3 -2 -3 -3 -3 -3 -3 -4 -5 -6 -7 -7 -8 -8 -6 -6 -4 -3 -5 -5 -6 -6 -6 -6
-6 -6 -6 -5 -5 -5 -5 -5 -5 -4 -3 -3 -3 -3 -3 -4 -3 -3 -3 -3 -3 -2 -2 -3 -3 -3 -3 -2 -3 -4 -6 -6 -7 -7 -3 -6 -6 -3 -4 -5 -5 -5 -6 -6 -6
-7 -7 -7 -6 -6 -6 -6 -5 -4 -3 -4 -4 -4 -4 -4 -4 -4 -4 -3 -3 -3 -3 -3 -3 -3 -3 -3 -3 -3 -3 -4 -4 -4 -4 -4 -5 -3 -1 -4 -6 -5 -5 -6 -6 -6
-6 -6 -7 -7 -7 -7 -6 -6 -5 -4 -4 -4 -5 -5 -4 -5 -4 -4 -4 -4 -4 -4 -4 -3 -3 -4 -3 -4 -4 -3 -3 -4 -5 -5 -5 -4 -3 -4 -5 -6 -6 -5 -6 -6 -6
-6 -6 -6 -6 -6 -6 -6 -6 -6 -6 -5 -5 -5 -5 -5 -5 -5 -5 -5 -4 -4 -4 -4 -4 -3 -4 -5 -4 -4 -4 -4 -4 -4 -4 -4 -3 -2 -2 -4 -4 -6 -5 -5 -5 -5
-8 -7 -6 -6 -6 -7 -6 -6 -6 -6 -6 -6 -6 -6 -6 -5 -5 -5 -5 -4 -4 -4 -4 -3 -3 -3 -5 -4 -4 -4 -3 -3 -4 -4 -3 -3 -2 -3 -3 -4 -5 -6 -6 -5 -5
-11 -10 -8 -8 -8 -8 -7 -6 -7 -7 -7 -6 -6 -6 -6 -6 -6 -6 -6 -5 -4 -4 -4 -3 -3 -2 -3 -4 -4 -4 -5 -4 -3 -2 -2 -2 -2 -3 -4 -4 -5 -5 -6 -6 -6
-20 -18 -15 -14 -13 -11 -9 -9 -8 -7 -9 -7 -6 -6 -6 -6 -7 -7 -6 -6 -5 -5 -4 -4 -3 -3 -3 -4 -5 -4 -4 -4 -3 -3 -2 -3 -2 -3 -4 -5 -5 -6 -6 -6 -6
-22 -23 -22 -21 -20 -17 -16 -14 -12 -11 -12 -11 -9 -7 -7 -7 -7 -8 -7 -8 -7 -6 -5 -5 -4 -3 -3 -4 -5 -3 -3 -3 -3 -2 -2 -1 -2 -2 -4 -4 -5 -5 -6 -7 -6
-24 -24 -24 -25 -25 -23 -22 -21 -20 -18 -18 -16 -14 -12 -11 -10 -9 -9 -8 -8 -9 -8 -7 -6 -5 -4 -4 -3 -4 -4 -4 -4 -2 -2 -2 -2 -2 -3 -4 -4 -5 -5 -6 -6 -6
-25 -25 -25 -26 -26 -26 -26 -25 -25 -24 -23 -23 -20 -17 -15 -13 -12 -12 -12 -11 -11 -10 -10 -8 -6 -6 -4 -5 -4 -5 -4 -2 -2 -3 -3 -3 -3 -3 -4 -4 -5 -5 -6 -6 -6
-26 -26 -25 -26 -26 -26 -26 -26 -25 -25 -24 -24 -23 -21 -20 -18 -17 -16 -14 -12 -11 -12 -12 -10 -8 -8 -6 -6 -6 -5 -3 -3 -2 -3 -3 -3 -3 -4 -5 -4 -4 -4 -4 -5 -6